Probability
42 39 29 16 3 0 0 0 0 0 0 0 0 0 0 0 0 0 13 6 3 6 6 26 32 26 23 29 32 42 39 39 39 42 39 39 32 35 35 45 45 42 35 39 39 32 35 42 39
29 32 10 6 0 0 0 0 0 0 0 0 0 0 0 0 0 0 10 6 3 10 13 19 26 32 23 26 32 29 35 39 39 32 32 35 35 29 29 39 32 35 32 39 42 32 29 32 42
16 6 3 0 0 0 0 0 0 0 0 0 0 0 0 0 0 0 6 10 6 10 10 16 32 23 26 23 26 23 26 29 32 29 29 29 19 29 29 29 35 29 29 29 39 39 32 35 39
13 6 3 0 0 0 0 0 0 0 0 0 0 0 0 0 3 3 6 6 6 13 10 19 32 19 13 23 26 19 23 19 23 19 23 19 16 16 19 23 32 32 32 32 32 26 23 32 35
10 3 0 0 0 0 0 0 0 0 0 0 0 0 0 0 10 6 6 3 3 3 6 10 26 19 23 23 23 19 19 16 16 16 16 13 13 13 19 23 23 23 26 29 23 26 26 23 16
13 0 0 0 0 0 0 0 0 0 0 0 0 0 3 10 6 10 6 3 3 3 3 10 16 13 19 16 19 19 23 16 13 13 13 16 19 16 19 16 16 26 19 26 19 16 19 19 13
13 0 0 0 0 0 0 0 0 0 0 0 0 0 0 10 13 13 10 10 6 3 3 10 10 0 13 10 6 13 10 10 6 3 3 3 3 6 10 10 6 16 16 16 19 13 10 6 13
6 0 0 0 0 0 0 0 0 0 0 0 0 0 0 13 16 10 10 10 6 3 6 10 3 0 0 10 6 3 6 13 10 3 3 3 3 6 3 6 6 6 10 13 10 13 13 10 16
3 0 0 0 0 0 0 0 0 0 0 0 0 3 3 13 10 13 10 10 6 3 3 3 3 3 10 3 6 10 6 3 3 3 3 3 0 0 3 3 6 6 6 3 3 3 6 6 6
3 0 0 0 0 0 0 0 0 0 0 0 0 10 16 13 13 6 6 10 10 10 10 10 3 10 0 0 10 6 3 6 6 6 3 3 3 3 0 0 6 3 3 3 6 3 3 3 3
3 0 0 0 0 0 0 0 0 0 0 0 0 10 19 19 13 10 6 6 10 10 10 10 13 3 0 3 6 6 3 3 6 3 0 3 3 3 0 6 3 3 3 3 0 3 3 3 6
0 0 0 0 0 0 0 0 0 0 0 0 3 13 19 19 19 13 6 6 6 10 10 10 10 10 6 3 6 10 3 3 3 3 0 0 3 3 3 10 6 6 6 6 6 6 0 0 0
0 0 0 0 0 0 0 0 0 0 0 3 10 10 19 19 10 10 10 6 6 10 10 13 6 6 6 6 13 6 0 3 3 3 0 0 3 3 3 6 10 3 3 3 3 0 0 0 0
0 0 0 0 0 0 0 0 0 0 3 6 10 13 16 10 10 10 16 13 6 10 10 13 13 6 6 3 3 6 0 0 3 3 0 0 0 0 0 0 3 0 3 3 0 0 0 0 0
0 0 0 0 0 0 0 0 0 0 3 6 6 10 13 6 6 6 6 13 6 13 13 13 13 6 6 6 3 3 0 0 0 0 0 0 0 0 0 0 0 0 3 0 0 0 0 0 0
0 0 0 0 0 0 0 0 0 0 3 0 3 6 13 10 3 3 6 10 6 10 10 13 10 6 6 10 3 3 0 0 0 0 0 0 0 0 0 0 0 0 0 0 0 0 3 0 0
0 0 0 0 0 0 0 0 0 0 3 3 3 3 10 10 3 3 6 6 6 6 10 10 10 10 10 6 13 6 0 3 3 0 0 0 0 0 0 6 0 3 0 0 0 0 0 0 0
0 0 0 0 0 0 0 0 0 0 0 0 0 6 3 10 10 3 6 3 13 10 6 10 10 13 10 10 6 6 6 6 10 10 0 0 0 0 0 3 0 0 0 0 0 0 0 0 0
0 0 0 0 0 0 0 0 0 0 0 0 0 0 0 6 6 6 6 6 10 13 10 10 10 13 13 13 10 10 10 6 6 6 0 0 0 0 0 0 0 0 0 0 0 0 0 0 0
0 0 0 0 0 0 0 0 0 0 0 0 0 0 0 0 10 13 6 6 10 10 10 10 10 10 13 13 13 6 13 10 10 0 0 0 0 0 0 0 0 3 3 0 0 0 0 0 0
0 0 0 0 0 0 0 0 0 0 0 0 0 0 0 0 3 10 6 6 6 13 13 13 6 6 13 13 10 6 10 10 6 0 0 0 0 0 3 3 3 3 0 0 0 0 0 0 0
0 0 0 0 0 0 0 0 0 0 0 0 0 0 0 0 3 10 6 6 6 10 10 13 10 10 13 10 10 6 10 6 6 3 0 0 0 0 3 0 0 0 0 0 0 0 3 3 0
0 0 0 0 0 0 0 0 0 0 0 0 0 0 0 0 3 3 6 6 6 6 10 13 13 16 13 10 13 10 10 6 6 3 3 0 0 0 0 0 0 0 0 0 0 0 3 3 3
0 0 0 0 0 0 0 0 0 0 0 0 0 0 0 0 3 3 3 3 6 10 13 13 16 16 16 10 13 13 13 6 3 3 3 3 0 0 0 0 0 0 0 0 0 0 3 3 3
0 0 0 0 0 0 0 0 0 0 0 0 0 0 3 3 3 3 3 6 6 6 13 16 16 16 13 13 6 6 6 6 6 6 6 3 3 3 0 0 0 0 0 3 3 3 3 3 3
0 0 0 0 0 0 0 0 0 0 0 0 0 0 0 3 3 6 3 10 10 10 10 13 16 16 13 10 6 3 3 3 0 0 3 3 3 3 0 0 0 0 0 3 3 3 3 3 3
0 0 0 0 0 0 0 0 0 0 0 0 0 0 0 3 3 3 3 10 6 6 10 10 13 13 13 10 6 6 6 3 3 3 3 3 3 3 3 3 3 3 3 3 3 3 3 3 3
0 0 0 0 0 0 0 0 0 0 0 0 0 0 0 0 3 3 3 3 6 10 10 10 13 13 10 6 6 3 6 3 3 3 3 3 3 3 3 3 3 3 3 3 3 3 3 3 3
0 0 0 0 0 0 0 0 0 0 0 0 0 0 0 0 0 3 3 6 6 6 6 6 10 10 10 6 6 3 0 0 3 3 3 3 3 3 3 3 3 3 3 3 3 3 3 3 3
0 0 0 0 0 0 0 0 0 0 0 0 0 0 0 0 0 0 3 10 6 6 6 6 6 10 10 10 3 0 3 0 0 0 0 0 0 3 3 3 3 3 3 3 3 3 3 3 3
Height
5885 5886 5887 5888 5889 5888 5888 5888 5888 5888 5889 5889 5889 5889 5889 5889 5890 5892 5890 5888 5888 5888 5888 5889 5888 5888 5888 5889 5888 5888 5888 5888 5888 5887 5887 5887 5886 5886 5886 5885 5885 5885 5884 5884 5884 5884 5884 5884 5884
5885 5885 5887 5888 5887 5887 5887 5887 5887 5887 5888 5888 5888 5888 5888 5888 5888 5888 5887 5887 5887 5887 5888 5888 5888 5888 5888 5888 5888 5887 5887 5887 5887 5887 5886 5886 5885 5885 5885 5884 5884 5884 5884 5883 5883 5883 5883 5883 5884
5884 5885 5886 5886 5886 5886 5886 5886 5886 5886 5886 5886 5887 5887 5887 5887 5887 5886 5886 5886 5886 5886 5887 5887 5887 5887 5887 5887 5887 5886 5886 5886 5886 5885 5885 5885 5884 5884 5884 5883 5883 5883 5883 5883 5883 5883 5883 5883 5883
5884 5885 5886 5886 5885 5885 5885 5885 5885 5885 5885 5885 5885 5886 5886 5886 5885 5885 5885 5885 5885 5885 5885 5885 5885 5886 5885 5885 5885 5885 5885 5885 5885 5884 5884 5884 5883 5883 5883 5882 5882 5882 5882 5882 5882 5882 5882 5882 5882
5883 5884 5884 5884 5884 5884 5884 5884 5884 5884 5884 5884 5884 5884 5884 5884 5884 5884 5884 5884 5884 5884 5884 5884 5884 5884 5884 5884 5884 5884 5883 5883 5883 5883 5883 5882 5882 5882 5882 5881 5881 5881 5881 5880 5881 5881 5881 5881 5881
5883 5883 5883 5883 5883 5883 5883 5883 5883 5883 5883 5883 5883 5883 5883 5883 5883 5883 5883 5883 5883 5883 5883 5883 5883 5883 5883 5883 5882 5882 5882 5882 5881 5881 5881 5881 5881 5881 5880 5880 5880 5880 5879 5879 5879 5879 5879 5880 5880
5882 5882 5882 5882 5882 5882 5882 5882 5882 5882 5882 5882 5882 5882 5881 5881 5881 5882 5882 5882 5882 5881 5882 5881 5881 5881 5881 5881 5881 5880 5880 5880 5879 5879 5879 5879 5879 5879 5879 5879 5879 5878 5878 5878 5878 5878 5878 5878 5879
5880 5881 5880 5880 5881 5881 5881 5881 5880 5880 5880 5881 5881 5881 5880 5880 5880 5880 5880 5880 5880 5880 5880 5880 5880 5880 5880 5879 5879 5878 5878 5878 5878 5877 5877 5878 5878 5878 5877 5877 5877 5877 5877 5877 5877 5877 5877 5877 5877
5879 5881 5879 5879 5879 5879 5879 5879 5879 5879 5879 5879 5879 5879 5879 5879 5879 5879 5879 5878 5878 5878 5878 5878 5878 5878 5878 5878 5877 5877 5876 5876 5876 5876 5876 5876 5876 5876 5876 5876 5876 5875 5875 5875 5875 5875 5875 5875 5875
5877 5878 5878 5878 5878 5878 5878 5878 5878 5878 5878 5877 5877 5877 5877 5877 5877 5877 5877 5877 5877 5877 5877 5877 5877 5877 5877 5876 5876 5875 5875 5874 5874 5874 5874 5874 5874 5874 5874 5874 5874 5874 5874 5874 5874 5874 5874 5873 5873
5875 5876 5876 5876 5876 5876 5876 5876 5876 5876 5876 5876 5876 5876 5876 5876 5876 5876 5876 5876 5876 5876 5876 5875 5875 5875 5875 5875 5874 5874 5873 5873 5873 5873 5873 5873 5873 5873 5873 5873 5872 5872 5872 5872 5872 5872 5872 5872 5871
5874 5874 5874 5875 5874 5875 5875 5875 5875 5875 5875 5875 5874 5874 5874 5874 5874 5874 5874 5874 5874 5874 5874 5874 5874 5874 5873 5873 5873 5872 5872 5872 5872 5871 5871 5871 5871 5871 5871 5871 5871 5871 5870 5870 5870 5870 5870 5870 5869
5872 5872 5873 5873 5873 5873 5873 5873 5873 5873 5873 5873 5873 5873 5873 5873 5873 5873 5873 5873 5873 5873 5872 5872 5872 5872 5872 5871 5871 5871 5871 5871 5870 5870 5870 5869 5869 5869 5869 5869 5869 5869 5869 5868 5868 5868 5868 5868 5867
5870 5871 5871 5871 5871 5871 5871 5872 5872 5871 5871 5871 5872 5872 5872 5872 5872 5872 5871 5871 5871 5871 5871 5871 5871 5871 5870 5870 5870 5869 5869 5869 5869 5868 5868 5868 5868 5867 5867 5867 5867 5867 5866 5866 5866 5866 5866 5865 5865
5869 5869 5870 5870 5869 5870 5870 5870 5870 5870 5870 5870 5870 5870 5870 5870 5870 5870 5870 5870 5870 5870 5870 5870 5869 5869 5869 5869 5868 5868 5868 5868 5867 5867 5866 5866 5866 5866 5865 5865 5865 5865 5864 5864 5864 5863 5863 5863 5863
5868 5868 5869 5869 5868 5869 5871 5870 5869 5868 5868 5868 5868 5868 5869 5869 5869 5869 5869 5869 5869 5868 5868 5868 5868 5868 5867 5867 5867 5867 5866 5866 5866 5865 5865 5865 5864 5864 5863 5863 5863 5862 5862 5862 5861 5861 5861 5860 5860
5867 5867 5867 5868 5867 5867 5868 5868 5868 5867 5867 5867 5867 5867 5867 5867 5868 5868 5868 5868 5868 5867 5867 5867 5867 5866 5866 5866 5865 5865 5865 5864 5864 5864 5863 5863 5862 5862 5861 5861 5861 5860 5860 5860 5859 5859 5858 5858 5857
5867 5867 5867 5867 5866 5866 5866 5866 5866 5866 5866 5866 5866 5866 5866 5866 5866 5866 5866 5866 5866 5866 5866 5865 5865 5865 5865 5864 5864 5864 5863 5863 5862 5862 5862 5861 5861 5860 5860 5859 5859 5858 5858 5857 5857 5856 5856 5855 5855
5865 5866 5866 5866 5865 5866 5865 5865 5865 5865 5865 5865 5865 5865 5865 5865 5865 5865 5865 5865 5865 5865 5864 5864 5864 5863 5863 5863 5862 5862 5862 5861 5861 5860 5860 5860 5859 5859 5858 5858 5857 5856 5856 5855 5854 5854 5853 5853 5852
5865 5865 5865 5865 5865 5865 5864 5864 5864 5863 5864 5863 5864 5864 5864 5864 5864 5864 5864 5863 5863 5863 5863 5863 5862 5862 5862 5861 5861 5860 5860 5860 5859 5859 5858 5858 5857 5857 5856 5856 5855 5854 5854 5853 5852 5851 5850 5850 5850
5863 5864 5864 5864 5864 5864 5864 5864 5863 5863 5863 5863 5862 5862 5862 5863 5863 5863 5862 5862 5862 5861 5861 5861 5861 5860 5860 5860 5860 5859 5858 5858 5858 5857 5857 5856 5856 5855 5854 5853 5853 5852 5851 5850 5849 5849 5848 5847 5847
5862 5863 5863 5863 5863 5863 5864 5863 5863 5862 5861 5861 5861 5861 5861 5861 5861 5861 5861 5860 5860 5860 5860 5860 5859 5859 5859 5858 5858 5857 5857 5856 5856 5856 5855 5854 5854 5853 5852 5851 5850 5849 5848 5848 5847 5846 5845 5845 5844
5861 5861 5861 5862 5862 5862 5862 5862 5862 5860 5860 5860 5860 5859 5859 5859 5859 5859 5859 5859 5858 5858 5858 5858 5857 5857 5857 5857 5856 5856 5855 5855 5854 5853 5853 5852 5851 5850 5850 5849 5848 5847 5846 5845 5844 5843 5842 5842 5841
5860 5860 5860 5860 5860 5861 5861 5861 5860 5859 5859 5858 5858 5857 5857 5857 5857 5857 5857 5857 5856 5856 5856 5855 5855 5855 5855 5854 5854 5853 5853 5852 5852 5851 5850 5850 5849 5848 5847 5846 5845 5844 5843 5842 5841 5841 5839 5838 5838
5859 5860 5860 5859 5859 5860 5859 5858 5859 5857 5857 5856 5855 5855 5855 5855 5855 5855 5855 5854 5854 5854 5854 5853 5853 5853 5853 5852 5852 5851 5850 5850 5849 5849 5848 5847 5846 5845 5844 5843 5842 5841 5840 5839 5838 5837 5836 5835 5834
5857 5858 5859 5858 5858 5857 5856 5856 5857 5855 5854 5854 5853 5853 5853 5853 5853 5852 5852 5852 5852 5852 5852 5851 5851 5850 5850 5849 5849 5848 5848 5847 5846 5846 5845 5844 5843 5842 5841 5840 5839 5838 5837 5836 5835 5834 5833 5832 5830
5855 5855 5856 5856 5855 5855 5854 5854 5853 5852 5852 5851 5851 5850 5850 5850 5850 5850 5850 5849 5849 5849 5849 5848 5848 5847 5847 5846 5846 5845 5845 5844 5843 5843 5842 5841 5840 5839 5838 5837 5836 5835 5834 5833 5831 5830 5829 5827 5826
5853 5853 5853 5853 5852 5852 5852 5851 5851 5850 5849 5849 5848 5848 5847 5847 5847 5847 5846 5846 5846 5846 5845 5845 5844 5844 5843 5843 5842 5842 5841 5841 5840 5839 5838 5838 5837 5836 5835 5834 5833 5831 5830 5829 5828 5826 5825 5823 5822
5850 5850 5849 5849 5849 5849 5849 5850 5848 5847 5846 5846 5845 5845 5844 5844 5844 5843 5843 5843 5842 5842 5842 5841 5841 5840 5840 5839 5839 5838 5837 5837 5836 5835 5835 5834 5833 5832 5831 5830 5829 5827 5826 5825 5823 5822 5821 5819 5817
5846 5846 5846 5846 5846 5845 5845 5848 5844 5843 5842 5842 5842 5841 5841 5840 5840 5839 5839 5839 5838 5838 5838 5837 5837 5837 5836 5835 5835 5834 5833 5832 5832 5831 5830 5829 5828 5827 5826 5825 5824 5823 5821 5820 5819 5817 5816 5814 5812
Wind_Speed
3 3 2 3 2 3 4 5 5 4 4 4 4 4 4 4 4 5 4 4 3 4 4 4 4 3 3 3 3 3 3 3 4 4 4 4 3 3 2 3 3 2 2 2 2 2 3 4 4
2 2 2 2 2 3 4 4 4 4 4 4 4 5 4 4 4 4 4 4 4 4 4 4 4 4 4 4 5 4 4 4 4 5 5 5 4 4 3 4 4 3 3 3 3 3 3 4 4
3 2 2 3 3 3 4 4 5 5 5 5 5 5 5 4 4 4 5 5 4 4 4 4 4 4 5 5 5 6 5 5 5 5 5 5 5 4 4 4 5 4 3 3 4 4 4 4 4
3 3 3 3 3 3 4 4 4 5 5 5 5 5 5 5 4 5 5 5 5 5 5 4 5 5 5 6 6 6 6 6 6 5 6 6 5 5 5 5 5 5 5 4 4 4 4 4 5
4 4 4 4 4 4 4 4 5 5 5 5 6 6 5 5 5 5 5 5 5 5 5 5 5 5 5 6 7 7 6 6 6 6 7 6 6 5 5 5 5 6 6 5 5 5 5 5 5
3 4 4 4 4 5 5 4 4 5 5 5 6 6 6 6 6 6 5 6 6 6 5 5 6 6 6 6 6 8 8 7 7 7 7 6 6 6 6 5 6 6 6 6 6 6 6 6 5
4 4 4 4 4 5 5 5 5 5 6 6 6 6 6 7 7 7 7 7 7 7 6 6 6 6 7 6 7 7 8 8 7 7 7 6 6 6 6 6 6 6 7 6 6 6 6 6 6
4 4 4 4 4 5 5 5 5 5 6 6 6 6 6 7 8 8 8 7 7 7 7 6 7 7 6 7 7 7 8 8 8 7 7 7 7 7 7 7 7 7 6 6 5 5 5 6 7
5 5 4 4 4 5 5 5 6 6 6 7 7 7 7 8 8 8 8 8 8 8 7 7 7 7 7 7 7 7 7 8 7 6 7 7 8 7 7 7 7 7 6 5 5 5 5 6 7
6 6 5 5 5 5 5 5 5 6 6 7 7 7 8 8 8 8 8 8 8 7 7 7 7 7 7 7 7 7 7 7 7 6 6 7 7 8 8 7 6 6 5 5 5 6 6 7 7
6 6 6 6 6 5 5 5 5 6 7 7 7 8 8 8 8 8 8 7 7 7 7 7 7 6 7 6 7 7 7 6 7 7 7 6 6 7 7 7 7 7 6 6 6 6 7 8 8
6 6 6 6 6 6 6 6 6 7 7 7 7 7 8 8 8 8 7 7 6 6 6 6 6 6 7 7 6 6 6 6 6 7 7 7 7 7 7 7 8 8 8 7 7 7 8 8 9
6 6 6 6 6 6 6 6 6 6 6 7 7 7 7 7 7 7 7 6 6 6 6 6 6 7 7 6 6 6 6 6 6 6 6 7 8 7 7 8 8 8 8 8 9 8 8 9 9
5 5 6 6 6 6 6 6 6 6 6 7 7 7 7 6 6 6 6 7 6 6 6 6 6 6 6 7 6 6 6 6 6 5 6 7 7 8 8 9 9 9 9 9 9 9 9 10 10
4 4 5 5 5 6 6 6 6 6 6 6 7 7 7 7 7 6 6 5 6 6 6 5 6 6 7 6 6 6 6 6 6 6 6 7 7 8 9 10 10 10 10 10 10 10 10 10 10
3 4 4 4 4 5 5 5 5 5 6 6 6 6 6 6 6 6 5 5 5 5 5 5 5 6 6 6 6 6 6 6 6 6 7 7 7 8 9 9 9 9 10 10 11 11 11 11 11
3 3 3 4 4 4 5 5 6 6 6 6 6 5 6 6 6 6 5 5 5 5 5 5 5 6 5 5 5 6 6 6 6 6 7 7 8 8 9 9 8 9 9 10 10 10 10 11 11
3 3 3 3 4 5 5 6 6 6 6 6 5 5 5 6 6 6 6 6 6 5 5 6 6 6 6 6 6 7 6 6 6 6 7 7 7 7 7 8 9 9 9 10 11 11 11 11 11
3 3 3 3 3 3 4 5 6 6 6 6 5 5 5 6 6 6 7 7 7 6 6 6 6 7 7 7 7 7 7 6 7 6 6 6 6 7 7 8 9 10 10 11 11 11 11 11 11
3 3 3 3 3 2 3 4 5 5 5 5 5 5 5 5 5 5 6 7 7 7 7 7 7 6 6 6 6 7 7 6 6 6 6 6 6 7 8 9 9 10 11 11 11 11 11 10 11
3 3 3 3 3 2 3 3 4 5 5 5 5 5 5 5 6 6 6 6 6 6 6 6 6 6 6 6 6 6 6 6 6 6 7 8 8 8 9 10 11 11 11 11 12 11 11 11 10
3 3 3 3 3 3 4 4 5 5 5 5 5 5 6 6 7 7 6 6 7 7 7 7 6 7 7 7 7 7 7 7 7 8 8 8 8 9 9 10 10 11 11 11 11 11 10 11 11
3 3 3 3 3 4 4 4 5 5 5 5 5 6 6 6 7 8 8 7 8 8 8 8 8 8 8 8 8 8 8 8 9 9 9 9 9 9 10 10 10 11 11 11 11 11 11 11 12
3 3 3 4 4 5 5 5 6 6 6 6 7 7 7 7 7 8 8 8 8 8 9 9 9 9 9 9 9 9 9 9 10 9 9 10 10 10 11 11 11 11 11 11 11 12 12 12 13
3 3 4 4 5 6 6 6 6 6 6 7 7 7 7 7 8 8 8 8 9 9 9 9 10 10 10 10 10 10 9 10 10 10 10 10 10 10 11 11 11 11 12 12 13 12 13 13 13
5 5 5 6 6 7 7 8 7 7 7 7 7 7 8 8 8 8 8 9 9 10 10 10 10 11 11 11 10 10 11 11 11 11 11 11 11 12 12 12 12 12 13 13 14 14 14 14 15
7 7 7 8 8 8 9 9 9 8 8 8 8 8 8 9 9 9 9 10 10 10 10 11 11 11 11 12 12 12 12 12 12 12 12 12 13 13 13 13 13 13 14 14 14 15 15 16 16
8 8 8 9 9 10 10 10 10 10 9 9 9 9 10 10 10 10 10 11 11 11 11 11 12 11 11 12 12 13 13 13 13 13 13 14 14 13 13 14 14 14 15 15 15 15 16 16 16
10 10 10 10 11 11 11 11 11 10 10 10 10 11 11 11 11 11 11 11 12 12 12 13 13 13 12 12 13 13 14 14 14 14 14 14 15 15 15 15 15 15 16 16 16 17 17 16 16
12 12 11 11 12 12 12 13 12 12 11 11 11 12 12 13 13 13 13 13 12 13 14 14 14 14 14 14 14 14 15 15 15 15 15 15 16 16 17 17 16 16 16 17 17 17 17 16 16
Wind_Direction
236 238 240 248 248 225 219 217 218 224 222 224 223 222 224 220 208 208 212 219 225 226 214 216 217 220 231 239 244 254 257 256 257 258 260 263 261 260 264 263 257 260 255 239 224 223 233 235 235
234 238 242 254 249 239 232 224 223 213 222 229 231 227 225 222 216 219 227 226 227 228 223 228 228 240 247 255 257 263 267 264 263 264 264 262 262 260 272 273 263 264 262 241 232 237 236 235 242
242 258 256 257 253 257 247 242 245 226 229 227 232 230 229 229 230 227 233 230 224 222 223 229 231 243 247 255 255 260 266 266 268 264 265 266 268 272 273 278 268 259 256 247 242 238 238 236 242
239 251 259 258 254 259 256 248 237 226 221 229 235 235 236 232 234 233 233 227 221 224 232 236 237 238 248 253 254 255 261 263 262 264 268 269 269 271 279 279 269 253 252 251 252 240 237 246 245
239 247 254 260 260 259 266 263 244 225 228 232 240 242 239 236 235 230 232 232 231 235 243 244 245 245 250 255 256 257 257 258 259 263 267 267 267 270 278 273 263 254 256 257 259 248 249 251 248
238 246 251 259 267 262 262 255 239 241 236 237 241 242 237 234 232 232 236 237 236 239 248 250 252 252 252 259 263 260 257 256 255 258 265 264 265 265 265 269 264 256 256 261 264 260 249 243 249
237 243 248 259 265 257 256 249 248 244 242 246 246 246 242 235 237 238 241 244 244 244 245 247 250 254 254 257 266 261 254 253 249 255 258 261 263 263 258 261 263 258 257 260 263 259 247 246 252
240 247 251 257 261 256 258 253 248 244 248 251 249 248 248 240 243 242 245 246 246 245 249 249 251 254 257 259 263 259 251 248 245 252 252 255 262 262 262 257 258 257 258 257 259 258 253 252 255
248 249 251 257 264 261 261 261 255 247 255 255 252 253 252 247 248 248 249 249 252 248 249 250 252 255 257 260 263 256 256 250 247 248 251 256 260 258 262 261 256 258 259 259 257 254 258 261 260
241 247 252 259 264 263 261 262 261 255 259 260 255 254 251 252 251 250 253 257 258 254 255 255 255 258 256 256 262 258 259 257 251 254 257 263 264 261 261 258 257 264 263 262 261 261 265 266 266
238 242 250 256 259 257 255 259 264 262 262 264 256 256 256 257 251 248 254 260 259 260 259 259 258 261 259 259 264 266 261 260 261 264 264 265 265 261 257 259 258 261 262 261 257 261 267 267 266
238 238 247 252 255 253 253 262 269 265 261 264 259 258 258 260 261 258 257 258 256 257 257 261 262 265 265 263 265 265 260 264 268 265 264 262 261 258 257 257 255 258 264 264 261 267 268 266 267
235 238 244 248 251 252 253 260 266 264 260 260 258 259 259 259 262 259 259 256 254 253 261 265 268 267 266 268 268 261 264 270 271 267 267 265 262 259 256 259 259 260 265 265 266 268 269 268 267
235 241 241 243 248 252 256 260 266 268 265 261 256 259 260 260 260 262 261 254 251 252 261 269 269 267 269 272 272 267 267 264 264 268 267 268 265 257 257 261 260 262 265 267 268 269 268 270 268
232 243 240 243 247 252 258 264 266 268 264 261 256 255 255 260 262 264 265 258 256 254 259 265 270 270 270 272 271 270 270 267 265 269 270 268 265 260 261 263 263 264 265 268 269 269 272 270 270
224 231 239 245 250 258 265 272 271 273 268 261 255 252 253 256 258 262 268 269 269 266 262 267 269 273 270 271 267 264 270 269 269 270 269 270 268 264 265 265 266 269 270 272 274 275 272 270 273
231 238 246 253 256 265 271 275 273 279 275 267 257 254 254 255 256 253 263 268 271 269 268 267 272 273 273 272 270 268 269 271 270 270 271 270 271 269 269 271 273 275 275 276 279 277 275 275 274
244 260 272 277 262 261 273 276 273 275 270 263 254 251 253 249 251 252 258 266 272 268 264 268 272 273 273 271 270 271 270 271 270 273 278 278 277 274 275 280 280 280 279 278 280 279 275 276 279
247 260 267 275 276 271 275 276 274 270 263 256 248 244 247 244 251 253 257 264 266 266 264 268 272 272 269 269 272 271 270 272 271 274 276 279 280 280 281 280 279 278 279 279 281 279 279 275 276
257 258 249 253 253 271 280 281 272 269 265 254 247 247 246 246 258 264 268 270 269 268 267 267 271 272 267 273 272 270 270 276 278 279 278 278 281 283 280 281 282 282 282 281 281 282 279 279 276
261 266 260 247 263 270 298 299 286 273 268 261 254 255 258 257 256 264 274 276 276 275 274 273 273 271 273 277 278 275 277 279 279 278 281 283 287 289 286 285 286 285 283 284 284 282 279 279 277
257 259 256 254 272 288 300 297 293 283 274 265 259 260 262 260 259 265 270 274 272 271 271 273 273 272 272 276 277 278 277 277 279 280 283 285 288 290 290 290 290 288 287 286 285 283 280 278 277
253 259 261 271 274 281 282 279 279 281 276 270 267 266 264 262 262 266 267 271 271 270 269 271 271 274 276 278 278 277 275 277 282 284 285 287 287 288 291 293 291 291 289 286 284 284 281 280 279
264 266 270 279 278 277 275 271 272 275 273 270 270 267 264 265 267 270 270 270 271 274 274 273 271 273 274 277 278 278 277 278 284 285 287 289 291 291 291 291 290 290 291 289 285 288 283 281 281
273 271 276 282 276 272 273 272 272 276 275 275 274 267 263 264 266 270 271 268 268 271 275 275 273 273 274 276 276 278 278 278 282 284 284 288 290 291 292 291 289 289 288 289 289 290 285 283 283
274 276 271 270 272 275 273 273 275 277 277 278 276 270 262 264 267 268 270 268 268 269 271 273 273 273 274 275 275 275 277 280 284 286 285 286 288 291 293 293 290 288 288 289 288 289 288 287 285
273 273 278 277 277 277 276 276 275 275 276 273 271 269 266 267 267 267 268 270 269 269 269 271 275 275 274 274 276 277 278 280 283 284 285 285 286 289 290 290 291 290 289 289 290 290 291 289 285
273 275 276 278 277 277 277 276 275 274 273 271 269 268 268 269 269 268 267 268 269 269 270 272 274 275 277 275 276 279 279 280 280 279 283 285 284 286 288 289 289 290 291 291 290 290 291 290 288
275 277 277 278 277 274 276 276 274 275 273 270 269 267 267 267 267 267 267 269 268 266 268 271 272 273 275 276 276 277 280 281 279 279 281 283 283 285 288 289 288 289 290 291 291 290 289 290 290
275 275 275 276 277 276 275 276 275 276 276 275 272 269 269 268 267 267 270 270 269 269 270 271 272 273 273 274 276 277 278 279 279 281 282 283 284 285 287 287 288 289 290 291 292 291 290 290 289